sat.trackr.live / text

‹ back to catalog

STARLINK-32203

NORAD 60331 · 2024-136C

PAYLOAD ACTIVE UNKNOWN

§ Identity

Operator
Country
US
Launch date
2024-08-02
Launch site
AFETR
Launch vehicle
Mass (kg)
RCS (m²)

Purposes: comms

External: N2YO · Heavens-Above · Gunter

§ Orbital elements

Epoch: 2026-05-25T02:15:50.560416Z

Period
94.11 min
Inclination
53.1602°
Eccentricity
0.0001069
Mean motion
15.30193629 rev/d
Perigee alt
474.5 km
Apogee alt
476.0 km
Semi-major
6,853.4 km
B*
1.8525e-5
RAAN
70.7477°
Arg perigee
100.9741°
Mean anomaly
259.1380°
Rev number
10,150

§ Raw data

STARLINK-322031 60331U 24136C   26145.09433519  .00000190  00000+0  18525-4 0  99952 60331  53.1602  70.7477 0001069 100.9741 259.1380 15.30193629101506

JSON: /api/v1/satellites/60331 · /tle

For live sub-satellite position, see the globe view (requires WebGL).

§ Visibility from observer

Set your observer location to see the next 7 days of passes ≥ 10°. The values pass through the URL so the page stays shareable.

No JS? Fill the form by hand. The geolocation button needs JavaScript.